Weather History for Norfolk, NE

Change the Weather History Date:

Monday, September 22, 2014

  Actual Average Record
Temperature  
Mean Temperature 58 °F 61 °F  
Max Temperature 75 °F 74 °F 96 °F (1940)
Min Temperature 40 °F 48 °F 26 °F (1995)
Degree Days  
Heating Degree Days 7 6  
Month to date heating degree days 114 69  
Since 1 July heating degree days 126 85  
Cooling Degree Days 0 2  
Month to date cooling degree days 48 82  
Year to date cooling degree days 775 898  
Growing Degree Days 7 (Base 50)    
Moisture  
Dew Point 46 °F    
Average Humidity 71    
Maximum Humidity 100    
Minimum Humidity 41    
Precipitation  
Precipitation T in 0.09 in 1.32 in (1994)
Month to date precipitation 1.03 1.97  
Year to date precipitation 26.25 22.50  
Snow  
Snow 0.00 in 0.00 in - ()
Month to date snowfall 0.0 0.0  
Since 1 July snowfall 0.0 0.0  
Snow Depth 0.00 in    
Sea Level Pressure  
Sea Level Pressure 30.24 in    
Wind  
Wind Speed 7 mph (SSE)    
Max Wind Speed 15 mph    
Max Gust Speed 21 mph    
Visibility 10 miles    
Events Rain    
T = Trace of Precipitation, MM = Missing Value Source: NWS Daily Summary

Daily Weather History Graph

Daily Weather History Graph

Search for Another Location

Airport:

Trip Planner

Search our weather history database for the weather conditions in past years. The results will help you decide how hot, cold, wet, or windy it might be!

Date:

Astronomy

Sep. 22, 2014 Rise Set
Actual Time 7:17 AM CDT 7:26 PM CDT
Civil Twilight 6:49 AM CDT 7:54 PM CDT
Nautical Twilight 6:16 AM CDT 8:27 PM CDT
Astronomical Twilight 5:43 AM CDT 9:00 PM CDT
Moon 5:46 AM CDT (9/22) 6:35 PM CDT (9/22)
Length of Visible Light 13h 05m
Length of Day
12h 09m
Waning Crescent, 2% of the Moon is Illuminated
Sep 22
Waning Crescent
Sep 24
New
Oct 1
First Quarter
Oct 8
Full
Oct 15
Last Quarter

Hourly Weather History & Observations

Time (CDT) Temp. Windchill Dew Point Humidity Pressure Visibility Wind Dir Wind Speed Gust Speed Precip Events Conditions
12:56 AM 46.9 °F - 44.1 °F 90% 30.29 in 10.0 mi WNW 3.5 mph - N/A   Clear
1:56 AM 44.1 °F - 42.1 °F 93% 30.30 in 10.0 mi Calm Calm - N/A   Clear
2:56 AM 43.0 °F - 39.9 °F 89% 30.30 in 10.0 mi Calm Calm - N/A   Clear
3:56 AM 41.0 °F - 39.9 °F 96% 30.30 in 10.0 mi Calm Calm - N/A   Clear
4:56 AM 42.1 °F - 39.9 °F 92% 30.30 in 10.0 mi Calm Calm - N/A   Clear
5:56 AM 41.0 °F 39.0 °F 39.9 °F 96% 30.30 in 10.0 mi ESE 3.5 mph - N/A   Clear
6:56 AM 39.9 °F - 37.9 °F 93% 30.31 in 10.0 mi Calm Calm - N/A   Clear
7:56 AM 43.0 °F - 42.1 °F 97% 30.31 in 10.0 mi Calm Calm - N/A   Clear
8:56 AM 53.1 °F - 48.9 °F 86% 30.30 in 10.0 mi Calm Calm - N/A   Clear
9:56 AM 62.1 °F - 50.0 °F 65% 30.29 in 10.0 mi South 9.2 mph - N/A   Clear
10:56 AM 66.0 °F - 48.9 °F 54% 30.29 in 10.0 mi South 13.8 mph - N/A   Clear
11:56 AM 69.1 °F - 46.9 °F 45% 30.27 in 10.0 mi SSW 12.7 mph - N/A   Clear
12:56 PM 72.0 °F - 48.0 °F 43% 30.25 in 10.0 mi SSE 11.5 mph - N/A   Clear
1:56 PM 72.0 °F - 46.9 °F 41% 30.22 in 10.0 mi South 10.4 mph - N/A   Clear
2:56 PM 72.0 °F - 48.9 °F 44% 30.21 in 10.0 mi South 13.8 mph - N/A   Clear
3:56 PM 73.9 °F - 48.0 °F 40% 30.19 in 10.0 mi South 10.4 mph - N/A   Clear
4:56 PM 73.0 °F - 48.9 °F 42% 30.17 in 10.0 mi South 13.8 mph - N/A   Clear
5:56 PM 72.0 °F - 48.9 °F 44% 30.15 in 10.0 mi SSE 12.7 mph - N/A   Clear
6:56 PM 69.1 °F - 48.9 °F 49% 30.14 in 10.0 mi SSE 9.2 mph - N/A   Clear
7:56 PM 66.0 °F - 50.0 °F 56% 30.15 in 10.0 mi SSE 8.1 mph - N/A   Mostly Cloudy
8:56 PM 64.0 °F - 51.1 °F 63% 30.16 in 10.0 mi SSE 6.9 mph - N/A   Clear
9:56 PM 64.9 °F - 50.0 °F 58% 30.14 in 10.0 mi SSE 10.4 mph - N/A   Mostly Cloudy
10:56 PM 64.0 °F - 50.0 °F 60% 30.14 in 10.0 mi SSE 10.4 mph - 0.00 in Rain Light Rain
11:56 PM 62.1 °F - 51.1 °F 67% 30.14 in 10.0 mi South 6.9 mph - 0.00 in   Scattered Clouds